This is the latest recevied weather packets stored in our database for station/object F4JYN. If no packets are shown the sender has not sent any weather packets the latest 10 day(s).
| Time | Temp. | Humidity | Pressure | Rain* | Wind** | Luminosity | Snow |
|---|---|---|---|---|---|---|---|
| 1787586513 | 24.44° C | 45% | 978.5 hPa | - | - | - | - |
| 1787585913 | 24.44° C | 45% | 978.7 hPa | - | - | - | - |
| 1787585312 | 24.44° C | 45% | 978.7 hPa | - | - | - | - |
| 1787584712 | 24.44° C | 45% | 978.8 hPa | - | - | - | - |
| 1787584112 | 24.44° C | 45% | 979.2 hPa | - | - | - | - |
| 1787583512 | 25.56° C | 45% | 980 hPa | - | - | - | - |
| 1787582911 | 25.56° C | 45% | 980 hPa | - | - | - | - |
| 1787582311 | 25° C | 45% | 980.2 hPa | - | - | - | - |
| 1787581711 | 24.44° C | 45% | 980.1 hPa | - | - | - | - |
| 1787581110 | 23.89° C | 45% | 980.2 hPa | - | - | - | - |
| 1787580510 | 25.56° C | 45% | 980.2 hPa | - | - | - | - |
| 1787579910 | 25.56° C | 45% | 980.4 hPa | - | - | - | - |
| 1787578709 | 23.89° C | 45% | 980.8 hPa | - | - | - | - |
| 1787578109 | 22.78° C | 45% | 980.8 hPa | - | - | - | - |
| 1787577508 | 22.78° C | 45% | 981.1 hPa | - | - | - | - |
| 1787576908 | 22.78° C | 45% | 981 hPa | - | - | - | - |
| 1787576307 | 22.22° C | 45% | 980.9 hPa | - | - | - | - |
| 1787575706 | 23.33° C | 45% | 980.7 hPa | - | - | - | - |
| 1787575106 | 25.56° C | 45% | 980.3 hPa | - | - | - | - |
| 1787574505 | 26.67° C | 45% | 980.3 hPa | - | - | - | - |
| 1787573904 | 27.78° C | 45% | 980.2 hPa | - | - | - | - |
| 1787573303 | 28.33° C | 45% | 980 hPa | - | - | - | - |
| 1787572703 | 28.89° C | 45% | 980.1 hPa | - | - | - | - |
| 1787572102 | 27.78° C | 45% | 980.1 hPa | - | - | - | - |
| 1787571501 | 27.22° C | 45% | 980.2 hPa | - | - | - | - |
* Rain since midnight (hover to see other rain measurements)
** Current wind speed in m/s (hover to see current wind gust speed)